When you browse on this site, cookies collect data to enhance your experience and personalize the content and advertising you see.
Visit our Privacy Policy to learn more. By continuing to use the site, you agree to this use of cookies and data.
  • In Hungary
  • List of Countries
  • For 7 days
  • Water Temperature
  • Weather Map
  • News
  • Weather Widgets
  • user-avatar
    Login

    Hourly Weather Klenovyy

    Today, 6 June, Saturday

    Time Temperature Precipitation Wind Pressure Humidity
    00:00 +17°C° 1.2 mm 4 mps 753 mmHg 76%
    01:00 +16°C° 1.2 mm 3 mps 753 mmHg 87%
    02:00 +15°C° 0.4 mm 4 mps 753 mmHg 79%
    03:00 +15°C° 0.4 mm 6 mps 753 mmHg 71%
    04:00 +15°C° 0 mm 6 mps 753 mmHg 55%
    05:00 +15°C° 0.3 mm 6 mps 753 mmHg 58%
    06:00 +15°C° 0.3 mm 6 mps 753 mmHg 61%
    07:00 +15°C° 0.3 mm 6 mps 752 mmHg 64%
    08:00 +16°C° 0.3 mm 6 mps 752 mmHg 64%
    09:00 +17°C° 0.3 mm 7 mps 753 mmHg 64%
    10:00 +17°C° 0 mm 7 mps 753 mmHg 64%
    11:00 +20°C° 0.1 mm 7 mps 753 mmHg 62%
    12:00 +21°C° 0.1 mm 6 mps 753 mmHg 60%
    13:00 +23°C° 0.1 mm 6 mps 753 mmHg 58%
    14:00 +23°C° 0.9 mm 6 mps 753 mmHg 60%
    15:00 +23°C° 0.9 mm 5 mps 753 mmHg 61%
    16:00 +23°C° 0.9 mm 5 mps 753 mmHg 63%
    17:00 +23°C° 0.8 mm 4 mps 753 mmHg 67%
    18:00 +22°C° 0.8 mm 3 mps 753 mmHg 72%
    19:00 +21°C° 0.8 mm 3 mps 753 mmHg 76%
    20:00 +20°C° 0.1 mm 3 mps 753 mmHg 80%
    21:00 +18°C° 0.1 mm 2 mps 754 mmHg 83%
    22:00 +17°C° 0.1 mm 2 mps 754 mmHg 86%
    23:00 +17°C° 0 mm 2 mps 754 mmHg 86%

    Tomorrow, 7 June, Sunday

    Time Temperature Precipitation Wind Pressure Humidity
    00:00 +16°C° 0 mm 2 mps 754 mmHg 86%
    01:00 +16°C° 0 mm 1 mps 754 mmHg 86%
    02:00 +16°C° 0 mm 2 mps 754 mmHg 87%
    03:00 +16°C° 0 mm 2 mps 754 mmHg 88%
    04:00 +15°C° 0 mm 2 mps 755 mmHg 89%
    05:00 +16°C° 0.2 mm 3 mps 755 mmHg 87%
    06:00 +17°C° 0.2 mm 3 mps 754 mmHg 86%
    07:00 +18°C° 0.2 mm 4 mps 754 mmHg 84%
    08:00 +18°C° 1.3 mm 3 mps 754 mmHg 85%
    09:00 +18°C° 1.3 mm 3 mps 755 mmHg 86%
    10:00 +18°C° 1.3 mm 3 mps 755 mmHg 87%
    11:00 +18°C° 1.3 mm 3 mps 755 mmHg 88%
    12:00 +18°C° 1.3 mm 3 mps 755 mmHg 89%
    13:00 +18°C° 1.3 mm 3 mps 754 mmHg 90%
    14:00 +18°C° 1 mm 3 mps 755 mmHg 90%
    15:00 +18°C° 1 mm 3 mps 755 mmHg 90%
    16:00 +18°C° 1 mm 3 mps 755 mmHg 90%
    17:00 +17°C° 0.7 mm 4 mps 754 mmHg 91%
    18:00 +17°C° 0.7 mm 4 mps 754 mmHg 92%
    19:00 +17°C° 0.7 mm 4 mps 754 mmHg 93%
    20:00 +17°C° 0.1 mm 4 mps 754 mmHg 93%
    21:00 +16°C° 0.1 mm 3 mps 754 mmHg 94%
    22:00 +16°C° 0.1 mm 3 mps 754 mmHg 94%
    23:00 +16°C° 0 mm 3 mps 754 mmHg 95%

    Day after tomorrow, 8 June, Monday

    Time Temperature Precipitation Wind Pressure Humidity
    00:00 +15°C° 0 mm 2 mps 754 mmHg 96%
    01:00 +15°C° 0 mm 2 mps 754 mmHg 97%
    02:00 +15°C° 0.4 mm 2 mps 754 mmHg 97%
    03:00 +15°C° 0.4 mm 2 mps 754 mmHg 97%
    04:00 +16°C° 0.4 mm 3 mps 754 mmHg 96%
    05:00 +16°C° 0.1 mm 3 mps 754 mmHg 94%
    06:00 +17°C° 0.1 mm 3 mps 754 mmHg 92%
    07:00 +18°C° 0.1 mm 3 mps 754 mmHg 90%
    08:00 +19°C° 0.4 mm 3 mps 754 mmHg 85%
    09:00 +20°C° 0.4 mm 4 mps 754 mmHg 79%
    10:00 +21°C° 0.4 mm 4 mps 754 mmHg 73%
    11:00 +22°C° 1.5 mm 5 mps 754 mmHg 72%
    12:00 +22°C° 1.5 mm 6 mps 754 mmHg 71%
    13:00 +22°C° 1.5 mm 7 mps 754 mmHg 71%
    14:00 +21°C° 0.8 mm 6 mps 754 mmHg 74%
    15:00 +20°C° 0.8 mm 5 mps 754 mmHg 78%
    16:00 +19°C° 0.8 mm 4 mps 754 mmHg 81%
    17:00 +19°C° 0.3 mm 4 mps 754 mmHg 81%
    18:00 +19°C° 0.3 mm 3 mps 754 mmHg 80%
    19:00 +19°C° 0.3 mm 3 mps 754 mmHg 80%
    20:00 +19°C° 0 mm 3 mps 754 mmHg 77%
    21:00 +18°C° 0 mm 3 mps 754 mmHg 74%
    22:00 +18°C° 0 mm 4 mps 755 mmHg 71%
    23:00 +17°C° 0 mm 4 mps 755 mmHg 72%

    9 June, Tuesday

    Time Temperature Precipitation Wind Pressure Humidity
    00:00 +17°C° 0 mm 3 mps 755 mmHg 73%
    01:00 +17°C° 0 mm 3 mps 755 mmHg 74%
    02:00 +17°C° 0 mm 3 mps 755 mmHg 74%
    03:00 +17°C° 0 mm 3 mps 755 mmHg 74%
    04:00 +17°C° 0 mm 3 mps 755 mmHg 73%
    05:00 +17°C° 0 mm 4 mps 756 mmHg 72%
    06:00 +17°C° 0 mm 5 mps 756 mmHg 70%
    07:00 +19°C° 0 mm 5 mps 757 mmHg 69%
    08:00 +20°C° 0 mm 5 mps 757 mmHg 65%
    09:00 +21°C° 0 mm 6 mps 757 mmHg 62%
    10:00 +23°C° 0 mm 6 mps 758 mmHg 59%
    11:00 +24°C° 0 mm 7 mps 758 mmHg 55%
    12:00 +26°C° 0 mm 7 mps 758 mmHg 51%
    13:00 +27°C° 0 mm 8 mps 758 mmHg 48%
    14:00 +27°C° 0 mm 6 mps 758 mmHg 49%
    15:00 +26°C° 0 mm 5 mps 758 mmHg 51%
    16:00 +26°C° 0 mm 4 mps 758 mmHg 53%
    17:00 +26°C° 0 mm 4 mps 758 mmHg 56%
    18:00 +25°C° 0 mm 4 mps 758 mmHg 59%
    19:00 +25°C° 0 mm 4 mps 757 mmHg 62%
    20:00 +23°C° 0 mm 5 mps 758 mmHg 61%
    21:00 +22°C° 0 mm 5 mps 758 mmHg 59%
    22:00 +21°C° 0 mm 5 mps 758 mmHg 57%
    23:00 +20°C° 0 mm 5 mps 758 mmHg 57%

    10 June, Wednesday

    Time Temperature Precipitation Wind Pressure Humidity
    00:00 +20°C° 0 mm 5 mps 758 mmHg 58%
    01:00 +19°C° 0 mm 5 mps 758 mmHg 59%
    02:00 +19°C° 0 mm 5 mps 758 mmHg 59%
    03:00 +17°C° 0 mm 5 mps 758 mmHg 60%
    04:00 +17°C° 0 mm 5 mps 758 mmHg 60%
    05:00 +19°C° 0 mm 5 mps 758 mmHg 61%
    06:00 +20°C° 0 mm 5 mps 759 mmHg 61%
    07:00 +21°C° 0 mm 5 mps 759 mmHg 61%
    08:00 +22°C° 0 mm 6 mps 759 mmHg 57%
    09:00 +24°C° 0 mm 6 mps 759 mmHg 53%
    10:00 +27°C° 0 mm 6 mps 759 mmHg 49%
    11:00 +28°C° 0 mm 6 mps 759 mmHg 47%
    12:00 +29°C° 0 mm 6 mps 759 mmHg 45%
    13:00 +29°C° 0 mm 5 mps 759 mmHg 43%
    14:00 +29°C° 0 mm 5 mps 759 mmHg 43%
    15:00 +30°C° 0 mm 5 mps 759 mmHg 43%
    16:00 +30°C° 0 mm 4 mps 759 mmHg 43%
    17:00 +29°C° 0 mm 4 mps 759 mmHg 47%
    18:00 +28°C° 0 mm 3 mps 759 mmHg 51%
    19:00 +27°C° 0 mm 2 mps 759 mmHg 55%
    20:00 +26°C° 0 mm 3 mps 759 mmHg 56%
    21:00 +23°C° 0 mm 4 mps 759 mmHg 57%
    22:00 +22°C° 0 mm 4 mps 759 mmHg 59%
    23:00 +22°C° 0 mm 4 mps 759 mmHg 59%

    11 June, Thursday

    Time Temperature Precipitation Wind Pressure Humidity
    00:00 +21°C° 0 mm 4 mps 759 mmHg 59%
    01:00 +21°C° 0 mm 4 mps 759 mmHg 59%
    02:00 +20°C° 0 mm 4 mps 759 mmHg 61%
    03:00 +20°C° 0 mm 3 mps 758 mmHg 63%
    04:00 +19°C° 0 mm 3 mps 758 mmHg 65%
    05:00 +20°C° 0 mm 3 mps 758 mmHg 65%
    06:00 +21°C° 0 mm 3 mps 759 mmHg 65%
    07:00 +22°C° 0 mm 4 mps 759 mmHg 65%
    08:00 +25°C° 0 mm 4 mps 759 mmHg 61%
    09:00 +26°C° 0 mm 4 mps 758 mmHg 57%
    10:00 +28°C° 0 mm 4 mps 758 mmHg 53%
    11:00 +29°C° 0 mm 3 mps 758 mmHg 49%
    12:00 +30°C° 0 mm 3 mps 758 mmHg 45%
    13:00 +31°C° 0 mm 2 mps 758 mmHg 40%
    14:00 +31°C° 0 mm 2 mps 758 mmHg 39%
    15:00 +31°C° 0 mm 2 mps 757 mmHg 37%
    16:00 +32°C° 0 mm 2 mps 757 mmHg 35%
    17:00 +31°C° 0 mm 1 mps 757 mmHg 40%
    18:00 +30°C° 0 mm 1 mps 757 mmHg 45%
    19:00 +29°C° 0 mm 1 mps 757 mmHg 49%
    20:00 +27°C° 0 mm 1 mps 756 mmHg 51%
    21:00 +26°C° 0 mm 1 mps 756 mmHg 53%
    22:00 +24°C° 0 mm 1 mps 756 mmHg 55%
    23:00 +23°C° 0.1 mm 1 mps 756 mmHg 58%
    Show more